[[{"header":{"parameterUnit":"m.s-1","parameterCategory":1,"la1":30.2991,"la2":30.254,"lo1":-89.0895,"lo2":-89.0444,"dy":0.0017,"dx":0.0017,"nx":28,"ny":28,"refTime":"2025-03-30T21:00:00:Z","depth":0,"parameterNumber":2,"parameterNumberName":"U-component_of_WINDS"},"data":[0,0,0,0,0,0,0,0,0,0,0,0,0,0,0,0,0,0,0,0,0,0,0,0,0,0,0,0,0,0,0,0,0,0,0,0,0,0,0,0,0,0,0,0,0,0,0,0,0,0,0,0,0,0,0,0,0,0,-1.6427,-1.6427,0,-1.6409,-1.6409,-1.6409,-1.6395,-1.6395,-1.6395,-1.6395,-1.6377,-1.6377,-1.6377,0,0,0,0,0,0,0,0,0,0,0,0,0,-1.6449,-1.6449,-1.6427,-1.6427,-1.6427,-1.6409,-1.6409,-1.6409,-1.6395,-1.6395,-1.6395,-1.6395,-1.6378,-1.6377,-1.6377,0,0,0,0,0,0,0,0,0,0,0,0,0,-1.6436,-1.6449,-1.6427,-1.6418,-1.6417,-1.6409,-1.6409,-1.6409,-1.6395,-1.6395,-1.6395,-1.6395,-1.6378,-1.6377,-1.6377,-1.6377,0,0,-1.6375,-1.6375,0,0,0,0,0,0,0,0,-1.6437,-1.6435,-1.6419,-1.6418,-1.6417,-1.6404,-1.641,-1.6398,-1.6395,-1.6404,-1.6395,-1.6395,-1.6387,-1.6385,-1.6382,-1.6377,-1.6376,-1.6375,-1.6375,-1.6374,-1.6374,0,0,0,0,0,0,0,-1.6438,-1.6436,-1.642,-1.6419,-1.6418,-1.6414,-1.6412,-1.6408,-1.6396,-1.6403,-1.6402,-1.64,-1.6386,-1.6383,-1.6382,-1.6375,-1.6375,-1.6375,-1.6374,-1.6374,-1.6368,-1.6368,0,0,0,0,0,0,-1.644,-1.6437,-1.6421,-1.642,-1.6427,-1.6414,-1.6412,-1.6409,-1.6396,-1.6394,-1.64,-1.6399,-1.6384,-1.6383,-1.6381,-1.638,-1.6374,-1.6374,-1.6374,-1.6368,-1.6368,-1.6368,0,0,0,0,0,0,-1.6441,-1.6439,-1.6421,-1.6428,-1.6425,-1.6414,-1.6411,-1.6408,-1.6405,-1.6394,-1.6392,-1.6399,-1.6384,-1.6382,-1.6378,-1.638,-1.6374,-1.6373,-1.6368,-1.6368,-1.6368,-1.6379,0,0,0,0,0,0,-1.6441,-1.6439,-1.6439,-1.6428,-1.6425,-1.6419,-1.6411,-1.6408,-1.6405,-1.6403,-1.6393,-1.6391,-1.6383,-1.6379,-1.6378,-1.6379,-1.6373,-1.6368,-1.6368,-1.6368,-1.6379,-1.638,-1.6381,0,0,0,0,0,-1.6442,-1.6443,-1.6439,-1.6438,-1.6425,-1.6419,-1.6417,-1.6408,-1.6405,-1.6405,-1.6397,-1.6391,-1.638,-1.6379,-1.6377,-1.6378,-1.6368,-1.6368,-1.6368,-1.6378,-1.638,-1.6381,0,0,0,0,0,0,-1.6456,-1.6442,-1.6437,-1.6435,-1.6428,-1.6416,-1.6416,-1.641,-1.6404,-1.6404,-1.6393,-1.6391,-1.6388,-1.6383,-1.6382,-1.6378,-1.6373,-1.6373,-1.6381,-1.6382,-1.6383,-1.6385,-1.6372,0,0,0,0,0,-1.6458,-1.6454,-1.6442,-1.6441,-1.6438,-1.6428,-1.6425,-1.6418,-1.6411,-1.6408,-1.6401,-1.6394,-1.6388,-1.6385,-1.638,-1.6378,-1.6375,-1.6378,-1.6379,-1.638,-1.638,-1.6378,-1.6379,-1.637,-1.637,-1.637,0,0,-1.6464,-1.6456,-1.6454,-1.6444,-1.6438,-1.6434,-1.6425,-1.6422,-1.6418,-1.6408,-1.6403,-1.6397,-1.6389,-1.6386,-1.6384,-1.6382,-1.6382,-1.6381,-1.6381,-1.6381,-1.6379,-1.638,-1.638,-1.637,-1.637,-1.637,0,0,-1.6471,-1.6465,-1.6463,-1.6457,-1.6448,-1.6441,-1.644,-1.643,-1.6425,-1.6421,-1.6412,-1.6408,-1.64,-1.6394,-1.639,-1.6394,-1.6388,-1.6393,-1.6398,-1.6397,-1.6397,-1.6398,-1.6399,-1.6399,-1.6393,-1.6393,-1.6393,0,-1.6479,-1.6472,-1.6463,-1.6459,-1.6455,-1.6445,-1.6442,-1.6437,-1.6427,-1.6424,-1.6421,-1.6409,-1.6403,-1.6398,-1.6399,-1.6397,-1.6395,-1.6394,-1.6398,-1.6398,-1.6399,-1.64,-1.64,-1.6394,-1.6394,-1.6394,-1.6394,0,-1.6482,-1.6478,-1.6477,-1.6467,-1.6463,-1.646,-1.645,-1.6446,-1.644,-1.6434,-1.6429,-1.6421,-1.6413,-1.6412,-1.6406,-1.6406,-1.6404,-1.64,-1.6395,-1.64,-1.6401,-1.6401,-1.6395,-1.6394,-1.6394,-1.6394,0,0,-1.6497,-1.6482,-1.6482,-1.6477,-1.6465,-1.6462,-1.6458,-1.6451,-1.6448,-1.6441,-1.6437,-1.643,-1.6425,-1.6421,-1.6414,-1.6413,-1.6416,-1.6408,-1.6408,-1.641,-1.6415,-1.6418,-1.6418,-1.6412,-1.6412,-1.6412,-1.6415,0,-1.6503,-1.6496,-1.6487,-1.6483,-1.6478,-1.6468,-1.6465,-1.6458,-1.6451,-1.6446,-1.6439,-1.6434,-1.6429,-1.6426,-1.6424,-1.6416,-1.6417,-1.6416,-1.6409,-1.6408,-1.641,-1.6419,-1.6422,-1.6425,-1.6415,-1.6415,-1.6415,0,-1.6508,-1.6501,-1.6496,-1.6485,-1.6483,-1.648,-1.6472,-1.6468,-1.6459,-1.6454,-1.6449,-1.6442,-1.6437,-1.6433,-1.6426,-1.6426,-1.6422,-1.6418,-1.6418,-1.6417,-1.6412,-1.6417,-1.6426,-1.6426,-1.6416,-1.6416,-1.6416,0,-1.6519,-1.6508,-1.6504,-1.65,-1.6487,-1.6485,-1.648,-1.6471,-1.6467,-1.646,-1.6457,-1.645,-1.6446,-1.644,-1.6431,-1.6429,-1.6425,-1.642,-1.6421,-1.6421,-1.642,-1.642,-1.6428,-1.6419,-1.6419,-1.6419,-1.6419,0,-1.6525,-1.6522,-1.6509,-1.6506,-1.6502,-1.6492,-1.6489,-1.6483,-1.6475,-1.6471,-1.6462,-1.6458,-1.6447,-1.6442,-1.6435,-1.643,-1.6429,-1.6424,-1.6422,-1.6425,-1.6425,-1.6422,-1.6421,-1.6419,-1.6419,-1.6419,-1.6419,0,-1.6536,-1.6527,-1.6521,-1.6509,-1.6506,-1.6504,-1.6494,-1.6491,-1.6484,-1.6478,-1.6477,-1.6466,-1.6459,-1.6449,-1.644,-1.6435,-1.6432,-1.6429,-1.6434,-1.6433,-1.6434,-1.6434,-1.644,-1.644,-1.6431,-1.6431,-1.6431,0,-1.6541,-1.6538,-1.6526,-1.6522,-1.6517,-1.6511,-1.6507,-1.6497,-1.6492,-1.6482,-1.648,-1.6473,-1.6466,-1.6456,-1.6447,-1.644,-1.6437,-1.6439,-1.6436,-1.6438,-1.6436,-1.6436,-1.6435,-1.644,-1.644,-1.644,-1.644,0,-1.6549,-1.6545,-1.6539,-1.6531,-1.6525,-1.6519,-1.6511,-1.6509,-1.6497,-1.6493,-1.6486,-1.6481,-1.6471,-1.6464,-1.6455,-1.6449,-1.6443,-1.6442,-1.6441,-1.6443,-1.6446,-1.6444,-1.6436,-1.6441,-1.6441,-1.6441,-1.6441,-1.6441,-1.6557,-1.6554,-1.6545,-1.6538,-1.6531,-1.6525,-1.6521,-1.6513,-1.6507,-1.6498,-1.6493,-1.6486,-1.6477,-1.6465,-1.6459,-1.6453,-1.6451,-1.645,-1.645,-1.645,-1.6451,-1.6448,-1.6452,-1.6452,-1.6452,-1.6452,-1.6452,0,-1.6564,-1.6558,-1.6552,-1.6542,-1.6536,-1.6531,-1.6522,-1.6518,-1.6512,-1.6504,-1.6498,-1.649,-1.6482,-1.6473,-1.6465,-1.6462,-1.6459,-1.646,-1.646,-1.6459,-1.6454,-1.6455,-1.6463,-1.6463,-1.6463,-1.6463,-1.6463,-1.6463,-1.6568,-1.6562,-1.6557,-1.6548,-1.6541,-1.6534,-1.653,-1.6524,-1.6517,-1.6508,-1.6502,-1.6496,-1.6487,-1.6478,-1.6471,-1.6469,-1.6466,-1.6468,-1.6465,-1.646,-1.6459,-1.6458,-1.6459,-1.6468,-1.6468,-1.647,-1.647,-1.647]},{"header":{"parameterUnit":"m.s-1","parameterCategory":1,"la1":30.2991,"la2":30.254,"lo1":-89.0895,"lo2":-89.0444,"dy":0.0017,"dx":0.0017,"nx":28,"ny":28,"refTime":"2025-03-30T21:00:00:Z","depth":0,"parameterNumber":3,"parameterNumberName":"V-component_of_WINDS"},"data":[0,0,0,0,0,0,0,0,0,0,0,0,0,0,0,0,0,0,0,0,0,0,0,0,0,0,0,0,0,0,0,0,0,0,0,0,0,0,0,0,0,0,0,0,0,0,0,0,0,0,0,0,0,0,0,0,0,0,0.4106,0.4106,0,0.4097,0.4097,0.4097,0.4048,0.4046,0.4045,0.4044,0.4036,0.4037,0.4037,0,0,0,0,0,0,0,0,0,0,0,0,0,0.4086,0.4086,0.4106,0.4106,0.4106,0.4097,0.4097,0.4097,0.4048,0.4046,0.4045,0.4044,0.4036,0.4037,0.4038,0,0,0,0,0,0,0,0,0,0,0,0,0,0.4087,0.4086,0.4106,0.4081,0.4078,0.4097,0.4097,0.4097,0.4048,0.4046,0.4045,0.4043,0.4035,0.4036,0.4038,0.4081,0,0,0.4042,0.4042,0,0,0,0,0,0,0,0,0.4087,0.4088,0.4085,0.4083,0.408,0.4072,0.4086,0.4091,0.4049,0.406,0.4044,0.4042,0.4049,0.4049,0.4051,0.408,0.408,0.4042,0.4043,0.4043,0.4043,0,0,0,0,0,0,0,0.4087,0.4088,0.4103,0.4085,0.4082,0.4071,0.4069,0.4087,0.4064,0.4059,0.4055,0.4054,0.4048,0.405,0.4051,0.408,0.4042,0.4043,0.4044,0.4044,0.4146,0.4148,0,0,0,0,0,0,0.409,0.4088,0.4103,0.4102,0.4079,0.4072,0.4071,0.4076,0.4064,0.4061,0.4056,0.4052,0.4049,0.4049,0.405,0.4101,0.4043,0.4044,0.4045,0.4144,0.4146,0.4149,0,0,0,0,0,0,0.409,0.4092,0.4103,0.4094,0.4095,0.4075,0.4081,0.4077,0.4079,0.4062,0.4058,0.4063,0.4047,0.4048,0.4074,0.41,0.4045,0.4046,0.4142,0.4145,0.4148,0.4203,0,0,0,0,0,0,0.409,0.4092,0.4108,0.4095,0.4096,0.4126,0.4083,0.4078,0.4081,0.4076,0.4067,0.4064,0.4046,0.4072,0.4075,0.4101,0.4047,0.4139,0.4143,0.4147,0.4198,0.4207,0.4214,0,0,0,0,0,0.4089,0.4123,0.4109,0.4111,0.4114,0.4128,0.4128,0.4107,0.4084,0.41,0.4089,0.4064,0.4097,0.4075,0.4078,0.4105,0.4138,0.4142,0.4146,0.4195,0.4205,0.4214,0,0,0,0,0,0,0.4139,0.4121,0.4105,0.4135,0.4134,0.412,0.4139,0.4118,0.4123,0.4118,0.4092,0.409,0.412,0.4115,0.4091,0.4147,0.4113,0.4118,0.4149,0.4159,0.4167,0.4168,0.4048,0,0,0,0,0,0.4154,0.4166,0.415,0.4179,0.4178,0.4159,0.4164,0.4148,0.4145,0.4144,0.4135,0.4134,0.4144,0.4151,0.4159,0.4198,0.4196,0.4217,0.4226,0.4232,0.4237,0.4259,0.4269,0.4163,0.4163,0.4163,0,0,0.4184,0.4176,0.4185,0.4188,0.4185,0.4199,0.4159,0.4175,0.4185,0.4147,0.417,0.4164,0.4161,0.4194,0.4208,0.419,0.4266,0.4238,0.4243,0.4244,0.4264,0.4274,0.4283,0.4166,0.4165,0.4165,0,0,0.4247,0.4241,0.4265,0.4263,0.4259,0.4246,0.4252,0.4242,0.4236,0.4259,0.4231,0.4244,0.4261,0.4261,0.4263,0.4329,0.4307,0.4332,0.4374,0.4396,0.4404,0.4411,0.4436,0.4445,0.4337,0.4337,0.4337,0,0.4285,0.4304,0.4281,0.4299,0.4302,0.4268,0.4294,0.4293,0.4292,0.4295,0.4276,0.4299,0.4294,0.4327,0.4343,0.4346,0.4353,0.4333,0.4405,0.4412,0.4418,0.4441,0.4451,0.434,0.434,0.434,0.4339,0,0.4352,0.4367,0.4387,0.4387,0.4392,0.4414,0.4395,0.4404,0.4388,0.4378,0.4403,0.4397,0.4404,0.4411,0.4395,0.4442,0.4432,0.4409,0.4375,0.4432,0.4453,0.4462,0.4345,0.4344,0.4343,0.4342,0,0,0.4445,0.4433,0.4441,0.4441,0.4435,0.4446,0.4467,0.4474,0.4483,0.4484,0.4502,0.4519,0.4499,0.4501,0.4485,0.4504,0.4558,0.4479,0.4479,0.4495,0.4612,0.463,0.464,0.4544,0.4546,0.4547,0.4613,0,0.4505,0.454,0.4521,0.4559,0.4573,0.4542,0.4561,0.456,0.4552,0.4563,0.4554,0.4567,0.4538,0.4539,0.4557,0.4548,0.4582,0.4543,0.4562,0.4563,0.4564,0.4651,0.467,0.4732,0.4621,0.4622,0.4623,0,0.458,0.4585,0.4625,0.4618,0.4623,0.464,0.4646,0.4657,0.4656,0.4649,0.4653,0.4634,0.4656,0.4622,0.4653,0.4627,0.4634,0.4631,0.4633,0.4634,0.4597,0.4656,0.4751,0.4761,0.4636,0.4635,0.4634,0,0.4645,0.4662,0.4688,0.4689,0.4681,0.4695,0.4692,0.469,0.4696,0.4702,0.4706,0.4714,0.4719,0.4727,0.471,0.4687,0.4744,0.4709,0.474,0.4741,0.4753,0.4753,0.4852,0.4757,0.4757,0.4757,0.4756,0,0.4715,0.4741,0.4717,0.4734,0.4762,0.474,0.477,0.4764,0.4763,0.4778,0.4752,0.4768,0.4745,0.4759,0.4747,0.4775,0.4777,0.4773,0.4769,0.4776,0.4776,0.478,0.4776,0.4759,0.4758,0.4758,0.4758,0,0.4792,0.4777,0.4804,0.4795,0.4794,0.4816,0.4808,0.4824,0.4815,0.4835,0.4839,0.4824,0.4839,0.4824,0.4838,0.483,0.4868,0.4858,0.4869,0.4866,0.4899,0.4896,0.5004,0.5018,0.4913,0.4914,0.4915,0,0.4838,0.4858,0.4851,0.486,0.4859,0.4873,0.488,0.486,0.4868,0.487,0.4886,0.4899,0.4908,0.4934,0.4925,0.4936,0.4927,0.4964,0.4928,0.4934,0.4929,0.4928,0.4931,0.4971,0.4972,0.4973,0.4974,0,0.4922,0.4914,0.4924,0.4933,0.4941,0.4947,0.4951,0.496,0.4939,0.495,0.4965,0.4973,0.4988,0.5001,0.501,0.5009,0.4989,0.4986,0.4994,0.5,0.5006,0.5005,0.4889,0.4983,0.4982,0.4982,0.4981,0.4981,0.4985,0.5002,0.5,0.5013,0.5014,0.5019,0.5034,0.5027,0.5039,0.5049,0.5037,0.5057,0.5057,0.5067,0.5069,0.5084,0.5069,0.508,0.5083,0.5086,0.5092,0.5004,0.5086,0.5085,0.5085,0.5085,0.5085,0,0.5068,0.5067,0.5079,0.5085,0.5096,0.5076,0.508,0.5091,0.5108,0.511,0.512,0.5139,0.5153,0.5146,0.5159,0.5173,0.5164,0.5177,0.5176,0.5176,0.5104,0.5097,0.5184,0.5184,0.5184,0.5184,0.5184,0.5184,0.5113,0.514,0.5133,0.5162,0.5159,0.5178,0.5182,0.5187,0.5189,0.5211,0.5223,0.5218,0.5217,0.523,0.5242,0.524,0.5247,0.5263,0.5258,0.5191,0.5181,0.5172,0.5164,0.5264,0.5264,0.5328,0.5329,0.5329]}]]